MST,Max TemperatureF,Mean TemperatureF,Min TemperatureF,Max Dew PointF,MeanDew PointF,Min DewpointF,Max Humidity, Mean Humidity, Min Humidity, Max Sea Level PressureIn, Mean Sea Level PressureIn, Min Sea Level PressureIn, Max VisibilityMiles, Mean VisibilityMiles, Min VisibilityMiles, Max Wind SpeedMPH, Mean Wind SpeedMPH, Max Gust SpeedMPH,PrecipitationIn, CloudCover, Events, WindDirDegrees
2013-1-1,17,9,1,8,4,-2,87,77,67,30.47,30.41,30.32,10,10,10,25,15,31,0.00,3,,249
2013-1-2,15,6,-3,6,1,-4,95,81,66,30.61,30.50,30.43,10,10,10,14,7,15,0.00,0,,243
2013-1-3,12,2,-9,2,-6,-12,91,79,66,30.70,30.49,30.29,10,6,0,8,3,9,0.00,1,Fog,201
2013-1-4,15,3,-9,2,-6,-13,100,77,53,30.63,30.49,30.24,10,9,1,10,3,12,0.00,0,,229
2013-1-5,25,12,-2,10,2,-8,83,65,46,30.56,30.49,30.42,10,10,10,20,5,22,0.00,0,,292
2013-1-6,15,6,-3,6,2,-4,95,83,70,30.46,30.38,30.29,10,10,10,10,2,12,0.00,1,,230
2013-1-7,25,10,-5,17,4,-8,88,72,51,30.38,30.27,30.14,10,10,6,29,8,37,0.00,1,,264
2013-1-8,32,28,24,25,22,19,81,75,69,30.41,30.19,30.02,10,10,10,40,21,47,0.00,6,,252
2013-1-9,38,29,19,22,19,16,92,72,51,30.47,30.27,29.96,10,10,10,22,7,25,0.00,0,,201
2013-1-10,40,33,26,20,18,16,75,60,44,29.89,29.60,29.38,10,9,2,36,18,45,T,1,Snow,191
2013-1-11,22,12,2,19,9,-2,84,76,67,30.04,29.54,29.33,10,4,0,32,21,38,T,8,Fog-Snow,249
2013-1-12,7,1,-6,-2,-6,-10,86,75,63,30.23,30.00,29.78,10,7,2,9,4,12,T,7,Snow,50
2013-1-13,4,-2,-9,-2,-7,-12,87,80,72,30.37,30.09,29.87,10,4,2,10,5,14,T,7,Snow,256
2013-1-14,3,-7,-18,-6,-12,-19,86,76,65,30.48,30.31,29.97,10,7,2,30,13,37,T,3,Snow,249
2013-1-15,16,8,0,8,2,-7,80,74,67,30.55,30.49,30.41,10,10,10,33,25,40,0.00,2,,243
2013-1-16,26,19,12,13,9,6,84,70,55,30.61,30.55,30.30,10,10,8,33,21,38,0.00,0,,243
2013-1-17,31,21,11,14,8,4,67,57,46,30.68,30.58,30.51,10,10,10,18,6,21,0.00,0,,271
2013-1-18,36,23,9,15,9,3,73,56,38,30.49,30.41,30.31,10,10,10,38,15,43,0.00,0,,263
2013-1-19,37,27,17,15,11,6,57,48,38,30.47,30.41,30.36,10,10,10,26,14,30,0.00,0,,249
2013-1-20,36,27,17,15,9,4,55,47,38,30.44,30.38,30.29,10,10,10,26,14,31,0.00,0,,253
2013-1-21,39,28,17,18,12,6,58,49,40,30.41,30.35,30.30,10,10,10,30,18,35,0.00,0,,255
2013-1-22,43,34,25,13,10,7,55,41,27,30.34,30.30,30.24,10,10,10,35,16,39,0.00,0,,245
2013-1-23,37,26,14,15,11,4,67,53,38,30.40,30.33,30.26,10,10,10,7,2,8,0.00,0,,277
2013-1-24,39,30,20,33,25,12,92,68,43,30.30,30.24,30.16,10,10,6,32,10,37,T,5,,222
2013-1-25,38,33,28,30,28,26,92,81,70,30.30,30.23,30.14,10,10,10,17,10,20,0.00,8,,235
2013-1-26,40,33,26,29,26,23,85,72,59,30.11,29.96,29.81,10,10,7,10,4,13,T,4,,168
2013-1-27,44,34,24,31,28,18,100,77,53,29.81,29.74,29.57,10,8,1,38,16,46,T,5,Snow,207
2013-1-28,24,17,10,18,12,5,92,72,51,30.00,29.85,29.73,10,7,1,25,17,33,T,6,Snow,251
2013-1-29,25,16,6,10,7,3,84,65,45,30.19,29.97,29.74,10,10,7,23,11,26,0.00,4,,267
2013-1-30,34,22,10,21,17,6,80,68,56,30.14,30.03,29.89,10,10,10,39,26,52,0.00,6,,257
2013-1-31,34,30,25,23,21,19,81,69,56,30.29,30.19,30.01,10,10,10,35,25,44,0.00,6,,257